Abilene, TX

8:10 AM CDT on August 23, 2017 (GMT -0500)
Abilene Regional

Weather History for KABI - February, 2013

Change the Weather History Date:

Monday, February 11, 2013

  Actual Average Record
Temperature  
Mean Temperature 48 °F 48 °F  
Max Temperature 58 °F 60 °F 91 °F (1922)
Min Temperature 38 °F 36 °F 1 °F (1899)
Degree Days  
Heating Degree Days 17 17  
Month to date heating degree days 117 201  
Since 1 July heating degree days 1536 1870  
Cooling Degree Days 0 0  
Month to date cooling degree days 0 0  
Year to date cooling degree days 6 1  
Moisture  
Dew Point 32 °F    
Average Humidity 55    
Maximum Humidity 71    
Minimum Humidity 38    
Precipitation  
Precipitation T in 0.06 in 0.77 in (1924)
Month to date precipitation 0.21 0.50  
Year to date precipitation 1.52 1.52  
Sea Level Pressure  
Sea Level Pressure 30.01 in    
Wind  
Wind Speed 10 mph (East)    
Max Wind Speed 18 mph    
Max Gust Speed 22 mph    
Visibility 10 miles    
Events Rain    
T = Trace of Precipitation, MM = Missing Value Source: NWS Daily Summary

Daily Weather History Graph

Daily Weather History Graph

Search for Another Location

Airport or City:

Trip Planner

Search our weather history database for the weather conditions in past years. The results will help you decide how hot, cold, wet, or windy it might be!

Date:

Astronomy

Feb. 11, 2013 Rise Set
Actual Time 7:24 AM CST 6:21 PM CST
Civil Twilight 6:59 AM CST 6:46 PM CST
Nautical Twilight 6:30 AM CST 7:15 PM CST
Astronomical Twilight 6:02 AM CST 7:44 PM CST
Moon 7:58 AM CST (2/11) 8:09 PM CST (2/11)
Length of Visible Light 11h 47m
Length of Day
10h 56m
Waxing Crescent, 3% of the Moon is Illuminated
Feb 11
Waxing Crescent
Feb 17
First Quarter
Feb 25
Full
Mar 4
Last Quarter
Mar 11
New

Hourly Weather History & Observations

Time (CST) Temp. Windchill Dew Point Humidity Pressure Visibility Wind Dir Wind Speed Gust Speed Precip Events Conditions
12:52 AM 41.0 °F - 24.1 °F 51% 29.97 in 10.0 mi North - - N/A   Mostly Cloudy
1:52 AM 43.0 °F 38.8 °F 27.0 °F 53% 29.99 in 10.0 mi SSE 6.9 mph - N/A   Overcast
2:52 AM 46.9 °F - 27.0 °F 46% 29.99 in 10.0 mi Calm Calm - N/A   Overcast
3:52 AM 46.0 °F - 26.1 °F 46% 29.98 in 10.0 mi Calm Calm - N/A   Overcast
4:52 AM 44.1 °F 40.8 °F 27.0 °F 51% 29.99 in 10.0 mi NW 5.8 mph - N/A   Overcast
5:52 AM 45.0 °F 41.8 °F 24.1 °F 44% 30.00 in 10.0 mi ENE 5.8 mph - N/A   Overcast
6:52 AM 45.0 °F 41.2 °F 24.1 °F 44% 30.04 in 10.0 mi East 6.9 mph - N/A   Overcast
7:52 AM 45.0 °F 39.3 °F 27.0 °F 49% 30.06 in 10.0 mi East 11.5 mph - N/A   Overcast
8:52 AM 46.0 °F 39.9 °F 28.9 °F 51% 30.09 in 10.0 mi East 13.8 mph 18.4 mph N/A   Mostly Cloudy
9:52 AM 48.0 °F - 28.9 °F 48% 30.10 in 10.0 mi ENE 13.8 mph - N/A   Mostly Cloudy
11:52 AM 52.0 °F - 30.0 °F 43% 30.09 in 10.0 mi ENE 8.1 mph - N/A   Partly Cloudy
12:52 PM 53.1 °F - 30.0 °F 41% 30.06 in 10.0 mi East 11.5 mph - N/A   Mostly Cloudy
1:52 PM 54.0 °F - 30.0 °F 40% 30.02 in 10.0 mi East 10.4 mph - N/A   Mostly Cloudy
2:52 PM 55.9 °F - 30.9 °F 39% 29.99 in 10.0 mi East 10.4 mph - N/A   Mostly Cloudy
4:52 PM 57.9 °F - 34.0 °F 41% 29.97 in 10.0 mi SE 15.0 mph - N/A   Overcast
5:52 PM 55.9 °F - 36.0 °F 47% 29.99 in 10.0 mi SE 15.0 mph - N/A   Overcast
6:52 PM 54.0 °F - 37.0 °F 53% 29.99 in 10.0 mi ESE 13.8 mph - N/A   Overcast
7:52 PM 53.1 °F - 37.9 °F 57% 30.02 in 10.0 mi ESE 12.7 mph - N/A   Overcast
8:52 PM 50.0 °F - 39.9 °F 68% 30.00 in 10.0 mi SE 15.0 mph - N/A   Mostly Cloudy
9:32 PM 48.2 °F - 39.2 °F 71% 29.99 in 10.0 mi ESE 11.5 mph - N/A   Mostly Cloudy
9:52 PM 48.9 °F - 39.9 °F 71% 29.97 in 10.0 mi ESE 13.8 mph - N/A   Scattered Clouds
10:52 PM 48.0 °F - 39.9 °F 74% 29.95 in 10.0 mi SE 13.8 mph - N/A   Partly Cloudy
11:52 PM 48.0 °F - 41.0 °F 77% 29.97 in 10.0 mi East 5.8 mph - 0.00 in Rain Light Rain